Location: Bindernheim
(48.2821°N, 7.6091°E)
Time: 23:01:44
(UTC+00:00)

Daily predictions for brighter satellites

Satellite Brightness Start Highest point End
(mag) Time Altitude Azimuth Time Altitude Azimuth Time Altitude Azimuth
Cosmos 1437 Rocket 4.3 17:28:10 10° ESE 17:30:20 15° E 17:32:31 10° NE
ASTEX 1 3.6 17:26:37 10° NNE 17:31:31 53° E 17:36:24 10° S
HJ-1C 4.5 17:30:06 10° ESE 17:32:34 22° ENE 17:35:03 10° NNE
Cosmos 1741 Rocket 4.1 17:27:41 10° S 17:32:52 60° ESE 17:38:03 10° NNE
CZ-4C R/B 3.8 17:30:36 10° N 17:34:52 73° WNW 17:38:55 10° SSW
Cosmos 1626 3.4 17:32:55 10° NNW 17:36:25 45° W 17:39:52 10° SSW
USA 267 3.3 17:29:50 10° ESE 17:36:25 89° NE 17:43:01 10° NW
Cosmos 1814 Rocket 4.3 17:31:47 10° NNW 17:36:54 49° ENE 17:41:56 10° SE
SL-4 R/B 2.3 17:32:47 10° WNW 17:37:10 88° SW 17:41:49 10° ESE
Cosmos 2084 Rocket 4.4 17:36:37 10° NNW 17:39:56 27° NE 17:43:19 10° E
Cosmos 1805 3.2 17:37:47 10° S 17:41:39 70° E 17:45:31 10° NNE
Cosmos 2227 4.4 17:37:08 10° NNW 17:42:39 54° ENE 17:48:10 10° SE
Cosmos 1242 Rocket 2.6 17:39:21 10° SSW 17:42:54 82° W 17:46:28 10° N
Okean-O 4.3 17:43:09 10° E 17:45:41 15° ENE 17:48:14 10° NNE
ISS -2.3 17:43:55 10° WNW 17:47:02 35° SW 17:50:08 10° SSE
Cosmos 1697 Rocket 3.7 17:42:35 10° SW 17:48:02 49° NW 17:53:31 10° NNE
CZ-4 R/B 2.2 17:44:23 10° SE 17:48:09 34° ENE 17:51:56 10° N
Okean 2 4.4 17:45:32 10° NNW 17:49:35 51° W 17:53:35 10° S
BREEZE M DEB (TANK) 4.2 17:44:06 10° SSW 17:50:20 23° SSE 17:53:03 12° ESE
Cosmos 1908 Rocket 4.1 17:49:25 10° SSE 17:53:22 35° E 17:57:18 10° NNE
SL-14 R/B 3.3 17:49:46 10° N 17:53:46 89° W 17:57:46 10° S
Meteor 2-21 4.4 17:48:00 10° S 17:53:54 60° E 17:59:51 10° NNE
OBJECT-B 2.4 17:54:14 11° ENE 17:54:14 11° ENE 17:54:58 10° NE
MOS 1-B 4.3 17:48:25 10° SSE 17:54:12 75° ENE 18:00:01 10° NNW
Cosmos 1733 3.4 17:51:25 10° SSW 17:55:09 73° W 17:58:54 10° N
Cosmos 2360 Rocket 3.6 17:52:29 10° SE 17:55:33 15° E 17:58:37 10° ENE
Cosmos 1809 Rocket 4.4 17:52:27 10° S 17:58:31 78° E 18:04:37 10° NNE
Cosmos 1766 3.3 17:57:39 10° S 18:01:29 57° E 18:05:23 10° NNE
Cosmos 1674 Rocket 3.6 17:58:33 10° N 18:03:00 89° W 18:07:26 10° S
Meteor 2-10 4.2 17:57:26 10° S 18:03:04 87° E 18:08:33 10° NNE
Cosmos 1025 Rocket 4.1 18:02:00 10° NNE 18:05:33 24° ENE 18:07:56 16° ESE
YAOGAN 1 2.5 18:02:04 10° SSE 18:06:21 71° ENE 18:10:41 10° N
ATLAS 2AS CENTAUR R/B 4.5 18:01:07 10° WNW 18:06:59 24° N 18:12:38 10° NE
Cosmos 968 Rocket 3.8 18:03:11 10° S 18:08:08 44° ESE 18:13:06 10° NE
Okean O Rocket 1.6 18:05:53 10° SSE 18:10:12 65° ENE 18:14:34 10° N
IRIDIUM 106 4.3 18:06:52 10° S 18:12:03 71° E 18:17:16 10° N
Lacrosse 4 Rocket 2.6 18:09:50 10° SSE 18:12:57 21° ESE 18:13:56 20° E
SKYMED 2 4.4 18:09:30 10° N 18:13:45 54° WNW 18:17:59 10° SSW
Meteor 2-5 Rocket 3.8 18:09:55 10° N 18:15:20 52° ENE 18:20:44 10° SSE
Nadezhda 4 Rocket 4.0 18:09:08 10° S 18:15:25 72° E 18:21:43 10° NNE
Meteor 1-15 Rocket 4.2 18:11:44 10° S 18:17:10 58° E 18:22:37 10° NNE
CSL-04 Rocket 4.3 18:13:27 14° SE 18:17:33 36° ENE 18:22:28 10° N
Cosmos 2285 Rocket 4.0 18:15:28 10° NNW 18:21:53 89° SW 18:28:16 10° SSE
USA 186 2.8 18:22:41 27° E 18:23:19 30° ENE 18:26:17 10° N
Cosmos 1726 2.7 18:20:05 10° SSW 18:23:41 58° WNW 18:27:18 10° N
Cosmos 2322 Rocket 2.7 18:18:49 10° S 18:24:00 37° ESE 18:29:13 10° NE
Cosmos 1470 2.9 18:24:38 10° SSE 18:28:19 46° E 18:32:01 10° NNE
CZ-4B R/B 3.5 18:23:23 10° S 18:28:44 68° WSW 18:34:15 10° NNW
Cosmos 1980 Rocket 3.3 18:24:44 10° SW 18:30:08 46° NW 18:35:33 10° NNE
Cosmos 1975 Rocket 3.4 18:26:31 10° N 18:30:45 43° ENE 18:33:08 23° SE
ARGOS Delta rocket 4.3 18:25:51 10° N 18:31:07 72° WNW 18:36:04 10° SSW
Cosmos 2292 Rocket 3.5 18:33:24 10° S 18:38:31 78° E 18:42:24 10° NNE
USA 215 3.7 18:37:07 10° NE 18:43:34 62° NNW 18:49:58 10° WSW
IRS-1C Rocket 4.3 18:43:42 26° SE 18:46:24 51° ENE 18:51:30 10° N
Cosmos 1844 Rocket 2.7 18:44:31 10° NNW 18:50:12 65° ENE 18:52:59 30° SE
Cosmos 2278 4.5 18:47:56 10° SW 18:53:30 53° WNW 18:59:04 10° NNE
SL-16 R/B 2.1 18:48:29 10° SSW 18:54:09 84° ESE 18:59:52 10° NNE
Landsat 5 3.6 18:51:11 10° NNE 18:55:40 60° E 19:00:02 10° S
Cosmos 1092 Rocket 3.9 18:50:37 10° S 18:56:55 83° E 19:03:13 10° N
Resurs 01 Rocket 2.8 19:01:19 27° NE 19:01:19 27° NE 19:04:20 10° N
Cosmos 836 Rocket 4.4 18:56:16 10° NNW 19:01:36 71° ENE 19:03:34 39° SE
SJ-6B 2.5 19:02:07 59° SSE 19:02:46 84° ENE 19:06:36 10° NNW
Cosmos 2278 Rocket 3.8 19:01:08 10° N 19:05:02 18° NE 19:05:41 18° NE
H-2A R/B 3.6 19:07:12 28° NNE 19:07:12 28° NNE 19:09:28 10° N
Cosmos 1437 Rocket 3.8 19:02:31 10° SSW 19:06:06 43° WNW 19:09:43 10° N
Cosmos 2263 Rocket 4.5 19:04:26 10° NW 19:08:49 23° WSW 19:13:11 10° SSW
Meteor 1-24 Rocket 3.9 19:05:23 10° NNW 19:10:38 65° W 19:15:58 10° S
Resurs 1-3 3.5 19:11:26 65° ESE 19:11:53 72° ENE 19:16:16 10° N
MetOp-A 4.4 19:17:19 34° NNE 19:17:19 34° NNE 19:19:55 10° N
SL-4 R/B 3.9 19:12:32 10° W 19:16:22 27° SW 19:17:52 23° S
Cosmos 2084 Rocket 3.9 19:15:45 10° NW 19:19:27 47° SW 19:19:51 45° SW
Okean-O 2.7 19:20:29 50° S 19:21:36 75° WSW 19:26:02 10° NNW
CZ-4 R/B 3.6 19:19:35 10° SSW 19:23:07 26° W 19:26:40 10° NW
Cosmos 1486 Rocket 3.9 19:18:13 10° SSW 19:23:31 76° ESE 19:28:53 10° NNE
OBJECT-B 3.2 19:24:56 17° NW 19:24:56 17° NW 19:25:53 10° NW
Cosmos 1844 3.6 19:19:07 10° NNW 19:24:43 84° WSW 19:26:12 51° SSE
IGS 5A 3.8 19:24:38 47° SSW 19:25:31 60° W 19:29:38 10° NNW
DNEPR-1 R/B 3.8 19:23:05 10° SW 19:27:49 88° ESE 19:30:36 30° NE
S3M 4.0 19:23:42 10° N 19:29:51 56° ENE 19:30:10 55° E
Cosmos 1300 Rocket 3.6 19:30:14 63° SW 19:30:49 74° W 19:35:12 10° N
Cosmos 773 Rocket 4.1 19:25:56 10° NNW 19:31:00 59° NE 19:31:00 59° NE
Meteor 1-21 Rocket 4.4 19:26:31 10° N 19:31:34 53° ENE 19:31:34 53° ENE
Cosmos 2360 Rocket 2.0 19:33:02 10° SSW 19:38:42 88° ESE 19:44:22 10° NNE
Cosmos 1025 Rocket 4.4 19:39:16 10° NNW 19:43:13 36° W 19:44:51 26° SW
Okean O Rocket 4.5 19:44:28 10° SW 19:47:00 15° W 19:49:31 10° NW
Cosmos 1417 Rocket 4.3 19:44:08 10° N 19:50:18 89° W 19:51:03 71° S
Lacrosse 4 Rocket 2.6 19:47:17 10° SW 19:50:17 38° W 19:50:17 38° W
ATLAS 2AS CENTAUR R/B 3.9 19:53:57 10° NW 20:00:17 30° NNE 20:01:35 29° NE
MOS 1 4.3 20:01:33 80° NW 20:01:33 80° NW 20:07:00 10° NNW
SPOT 1/Viking Rocket 4.0 20:07:53 58° NW 20:07:53 58° NW 20:12:06 10° NNW
Cosmos 2322 Rocket 3.3 20:02:36 10° SW 20:08:00 42° NW 20:13:27 10° NNE
NOSS 3-4 (A) 3.7 20:05:07 10° NW 20:11:59 74° NE 20:12:04 74° NE
NOSS 3-4 (C) 3.7 20:05:14 10° NW 20:12:05 73° NE 20:12:10 73° NE
Ariane Rocket 4.1 20:16:26 39° N 20:16:26 39° N 20:19:37 10° NNW
Aureole 1 Rocket 4.3 20:18:32 10° SW 20:25:47 64° WNW 20:31:30 10° NNE
USA 215 4.1 20:24:15 35° NNE 20:25:59 42° N 20:32:02 10° WNW
USA 281 3.8 20:27:40 45° NNE 20:27:40 45° NNE 20:32:45 10° NNW
Resurs 01 Rocket 3.8 20:38:52 23° NW 20:38:52 23° NW 20:40:58 10° NNW
SL-16 R/B 4.4 20:34:37 10° W 20:38:59 22° NW 20:43:24 10° N
Terra 4.2 20:42:43 16° N 20:42:43 16° N 20:43:45 10° N
Cosmos 1943 Rocket 4.1 20:36:39 10° N 20:38:59 20° N 20:38:59 20° N
Cosmos 2278 Rocket 3.6 20:44:25 10° NNW 20:47:32 34° NNW 20:47:32 34° NNW
Cosmos 2369 Rocket 4.5 20:56:48 10° N 20:58:48 16° NNE 20:58:48 16° NNE
Cosmos 2333 Rocket 4.5 21:18:31 18° N 21:18:31 18° N 21:20:10 10° NNE
Cosmos 2360 Rocket 4.4 21:19:13 10° W 21:23:28 21° NW 21:27:44 10° N
ATLAS 2AS CENTAUR R/B 4.1 21:45:11 10° NW 21:49:00 34° NNW 21:49:00 34° NNW
